Wind_Speed
21 20 19 17 16 14 12 10 9 7 6 4 3 3 3 3 3 4 4 5 6 7 7 8 8 8 8 8 9 10 11 12 13 16 17 19 20 21 22 23 23 23
22 22 21 19 17 15 13 12 11 9 8 7 6 6 5 5 5 5 5 5 5 6 7 8 8 8 9 8 8 8 9 10 11 13 15 17 18 20 21 21 21 21
23 22 21 20 18 17 15 14 13 11 10 9 8 8 8 7 7 7 6 6 6 6 7 7 8 8 9 9 9 8 8 9 9 10 12 14 16 17 19 20 20 20
24 23 22 21 20 19 18 17 15 14 12 11 11 11 11 10 9 9 8 7 7 7 8 8 8 8 9 9 9 9 9 8 8 9 9 11 13 15 16 18 19 19
25 25 24 23 22 22 21 19 18 17 15 14 14 14 13 13 12 11 10 10 9 9 9 9 9 9 9 9 10 10 10 9 9 8 8 9 10 11 13 15 17 18
27 27 27 26 25 24 23 22 21 20 19 18 17 16 16 16 15 14 13 12 12 12 11 11 10 9 10 10 10 11 11 11 10 9 9 8 9 9 10 13 14 15
28 28 28 28 27 26 25 24 23 23 22 21 20 19 19 18 18 17 16 15 14 14 14 13 12 11 11 11 11 12 12 12 12 11 10 10 9 9 9 10 12 13
26 27 28 27 27 27 26 26 25 25 24 23 22 21 21 21 20 19 18 18 17 17 16 16 14 13 13 13 13 13 13 14 14 13 13 12 11 10 10 10 11 12
24 25 26 26 26 26 26 26 26 26 26 25 24 23 23 23 22 22 21 20 19 19 19 18 17 16 15 15 14 14 15 15 15 15 15 14 13 12 12 11 11 12
23 24 25 25 24 24 25 26 26 26 26 26 25 25 24 24 24 23 22 22 21 21 20 20 20 19 18 17 16 16 16 16 17 17 17 16 16 14 14 13 12 13
21 23 24 24 23 23 24 25 25 26 26 26 26 25 25 26 26 25 24 23 23 23 22 22 22 21 20 19 19 18 18 18 18 18 18 18 18 17 16 15 15 14
20 23 23 23 22 21 22 24 25 25 26 26 26 26 26 26 27 27 26 25 25 25 25 24 24 24 22 21 21 20 20 20 20 20 20 20 20 20 19 17 17 17
20 22 22 22 22 21 22 23 24 25 26 27 27 26 27 27 28 27 26 26 27 27 27 27 26 26 25 23 22 22 22 23 23 22 21 21 21 21 21 20 19 18
19 21 22 23 22 21 22 22 24 25 26 26 27 27 27 28 28 28 28 27 28 28 28 29 28 28 27 25 24 24 25 25 25 24 23 22 22 23 23 22 21 20
21 22 23 23 23 23 22 22 22 23 24 26 27 28 28 28 29 29 29 29 29 30 30 30 30 30 29 28 27 27 27 27 27 26 26 25 24 24 24 24 23 22
24 24 25 25 25 24 23 22 22 23 24 25 27 28 28 28 29 30 31 31 31 31 32 32 32 32 31 30 30 29 29 29 29 29 28 28 26 25 25 25 25 24
27 28 28 27 26 26 25 24 24 23 24 25 26 27 28 28 29 30 31 32 32 33 34 35 34 34 33 32 32 32 32 32 32 31 31 30 29 28 27 27 27 26
31 31 32 31 29 27 26 26 26 25 25 25 25 26 27 28 28 29 30 32 33 34 35 36 36 36 35 34 34 33 34 34 34 34 34 33 31 30 29 28 29 29
34 34 34 34 32 30 28 27 27 27 27 26 25 25 26 28 29 29 30 31 33 34 35 36 37 37 37 36 36 35 35 36 36 36 36 35 34 32 30 30 31 31
37 37 36 36 34 32 31 29 28 28 27 27 27 25 26 28 29 30 30 31 32 33 35 36 37 37 37 37 37 37 37 38 38 38 38 38 36 34 32 32 33 33
41 40 38 37 36 34 33 32 30 29 28 28 28 27 26 27 29 30 30 31 31 33 34 36 37 37 37 37 37 38 38 39 40 40 40 40 38 36 35 35 35 35
43 43 40 38 37 36 35 34 33 31 29 28 29 28 27 26 28 30 31 31 31 32 34 36 37 38 38 37 37 37 38 40 41 42 42 42 40 38 37 37 37 38
44 43 41 40 39 38 37 36 34 33 31 30 30 29 29 27 27 28 30 31 32 33 34 36 38 39 39 38 38 37 38 40 41 42 43 43 41 39 37 37 39 39
44 43 41 41 40 40 38 37 36 35 34 32 31 30 30 28 27 28 29 31 32 33 35 36 37 39 40 40 39 38 38 39 41 42 43 43 41 38 36 36 38 38
42 42 41 41 41 40 39 38 38 37 36 35 33 32 31 29 28 28 29 30 31 32 34 36 37 38 40 40 40 39 39 40 41 42 43 42 40 37 34 34 34 34
44 43 42 42 42 41 40 39 39 39 38 37 35 33 32 31 30 29 29 30 31 31 33 35 36 38 39 39 40 40 39 40 41 42 43 42 40 37 35 35 34 32
Wind_Direction
190 193 195 195 194 194 192 192 196 197 194 195 204 231 262 291 308 320 333 344 353 353 355 358 1 5 7 9 11 14 18 24 29 30 29 27 26 24 25 28 30 31
196 198 199 200 200 200 201 203 206 208 207 210 218 232 249 264 277 291 305 321 333 337 340 343 347 351 355 357 359 2 7 13 20 25 27 26 24 23 22 24 27 28
202 203 204 205 204 206 209 211 214 216 215 217 224 233 242 250 260 272 284 298 309 316 322 328 333 338 342 344 344 347 352 358 7 15 21 22 22 21 18 19 23 24
209 209 210 210 210 212 214 216 218 220 221 222 228 235 240 246 253 262 272 280 288 295 303 311 319 324 328 330 331 332 335 340 348 358 8 14 17 18 15 14 18 20
217 216 215 215 216 217 219 220 222 224 226 227 231 237 241 245 249 254 262 268 275 281 288 297 305 310 314 317 318 319 321 324 329 337 347 358 5 10 11 9 11 15
221 221 221 220 220 222 223 224 225 226 228 229 232 237 240 244 247 252 256 261 267 272 278 284 291 296 301 304 307 309 311 313 315 319 326 335 345 354 -0 0 2 7
227 226 225 224 224 224 226 227 228 229 230 231 233 236 240 243 247 250 254 258 262 267 271 276 281 286 290 292 296 299 302 304 306 308 311 316 324 332 341 346 349 354
240 237 234 232 229 228 228 229 230 231 233 234 235 236 239 243 246 249 253 257 261 265 269 272 275 279 282 284 287 290 293 297 299 301 303 305 309 313 319 327 332 337
250 246 244 242 238 236 235 235 235 235 236 238 238 238 240 243 247 250 253 257 261 265 268 271 273 276 279 281 282 284 287 290 293 296 297 299 301 302 305 310 315 320
252 251 250 248 245 243 242 241 241 242 242 243 243 243 244 245 249 251 254 257 261 264 267 269 271 273 276 279 280 281 282 284 287 291 293 296 297 297 298 300 303 307
248 250 250 251 250 247 246 245 245 246 247 249 248 248 248 249 251 253 255 257 259 261 264 265 268 271 273 276 277 279 280 281 283 286 289 292 294 296 297 297 298 299
242 247 249 251 251 250 250 249 249 249 249 251 251 252 252 253 254 256 257 257 258 259 261 263 265 267 270 272 274 277 278 279 280 283 285 288 291 293 295 295 296 296
235 243 248 251 251 251 251 252 252 252 253 253 254 253 252 253 255 257 258 258 259 259 260 261 263 265 267 270 271 273 275 276 278 279 282 284 287 290 292 293 294 295
233 239 246 250 252 251 250 250 252 254 256 257 257 257 256 254 255 256 257 257 258 259 260 261 262 263 265 267 268 270 271 273 275 277 279 280 282 285 288 290 292 293
238 239 243 247 250 252 252 251 252 254 257 259 260 261 261 259 257 257 256 256 257 258 260 261 262 263 265 266 267 268 269 270 273 275 277 278 279 281 283 286 289 291
248 246 245 247 249 252 254 254 253 252 254 256 259 262 262 262 261 261 260 260 259 260 261 262 263 264 265 266 267 267 268 270 272 274 275 277 278 280 281 284 286 288
258 255 252 250 250 251 253 256 256 255 254 254 256 259 261 263 263 263 264 265 264 264 264 265 266 266 267 267 268 269 270 271 273 274 276 277 278 280 281 283 284 286
260 259 257 255 254 252 252 254 256 257 257 256 256 257 260 262 263 263 264 265 267 267 267 268 269 270 270 270 270 271 271 273 274 275 276 277 278 280 282 283 284 285
256 256 257 258 257 256 254 254 256 259 261 263 262 261 260 261 262 263 263 264 266 267 269 270 271 272 272 272 272 272 272 273 274 275 276 277 279 281 282 283 284 286
252 253 255 256 258 258 257 256 257 259 263 266 268 267 265 264 265 266 265 264 265 266 268 269 271 272 273 273 273 273 273 274 275 276 276 277 279 281 282 283 284 285
248 251 253 254 256 257 258 258 259 260 263 266 270 272 271 269 269 270 271 269 267 266 267 268 270 271 272 273 273 274 274 275 275 276 276 277 279 281 282 284 284 286
245 247 251 253 254 256 257 258 260 261 263 265 268 272 274 273 273 274 276 277 274 270 268 268 268 269 270 270 271 272 273 274 274 275 276 277 279 281 283 285 285 285
240 242 248 252 254 255 256 258 260 261 263 265 268 271 274 276 277 278 279 281 281 278 275 272 271 270 270 270 269 269 271 272 273 275 276 278 280 282 285 286 285 286
239 242 247 250 252 254 256 257 260 262 263 265 267 270 274 277 279 281 283 284 285 285 284 281 278 275 274 274 273 270 269 270 272 274 276 278 281 284 287 288 287 287
244 247 250 251 252 254 256 258 260 262 264 266 268 270 274 277 281 284 285 287 289 289 287 286 284 281 279 278 277 275 271 270 272 274 277 279 283 286 288 289 288 288
248 252 254 255 256 256 258 259 260 262 264 266 269 271 274 277 280 284 286 289 290 291 290 288 286 285 283 281 280 279 276 274 272 274 276 279 282 284 285 286 286 286
Height
11024 11025 11026 11027 11029 11030 11032 11033 11034 11035 11037 11038 11038 11039 11039 11040 11040 11040 11041 11041 11041 11041 11041 11041 11040 11040 11040 11039 11039 11038 11038 11037 11036 11035 11034 11033 11032 11031 11030 11029 11028 11027
11023 11024 11025 11026 11028 11029 11031 11032 11033 11034 11036 11037 11037 11038 11038 11039 11039 11040 11040 11040 11040 11040 11040 11040 11040 11040 11039 11039 11039 11038 11038 11037 11037 11036 11035 11034 11033 11032 11031 11030 11029 11028
11022 11023 11024 11025 11027 11028 11029 11030 11031 11033 11034 11035 11036 11037 11037 11038 11038 11039 11039 11040 11040 11040 11040 11040 11039 11039 11039 11039 11038 11038 11038 11037 11037 11036 11036 11035 11034 11033 11031 11031 11030 11029
11021 11022 11023 11024 11025 11026 11027 11029 11030 11031 11033 11034 11035 11035 11036 11037 11037 11038 11038 11039 11039 11039 11039 11039 11039 11039 11038 11038 11038 11037 11037 11037 11037 11036 11036 11035 11034 11033 11032 11031 11031 11030
11020 11021 11021 11022 11023 11024 11026 11027 11028 11030 11031 11032 11033 11034 11035 11035 11036 11036 11037 11037 11038 11038 11038 11038 11038 11038 11038 11038 11037 11037 11036 11036 11036 11036 11035 11035 11034 11033 11033 11032 11031 11030
11019 11019 11020 11021 11022 11023 11024 11025 11027 11028 11029 11031 11032 11033 11033 11034 11034 11035 11036 11036 11036 11037 11037 11037 11037 11037 11037 11037 11036 11036 11035 11035 11035 11035 11035 11034 11034 11033 11033 11032 11031 11030
11018 11018 11019 11019 11020 11021 11022 11024 11025 11026 11027 11028 11030 11031 11032 11032 11033 11033 11034 11035 11035 11035 11036 11036 11036 11036 11036 11036 11036 11035 11034 11034 11034 11034 11034 11033 11033 11033 11032 11031 11030 11030
11018 11018 11018 11018 11019 11020 11020 11021 11022 11024 11025 11026 11028 11029 11030 11031 11031 11032 11032 11033 11033 11034 11034 11034 11035 11035 11035 11035 11035 11034 11033 11033 11032 11032 11032 11032 11032 11032 11031 11031 11030 11029
11018 11018 11018 11018 11018 11019 11019 11020 11021 11022 11023 11024 11026 11027 11028 11029 11029 11030 11031 11031 11032 11032 11032 11033 11033 11034 11034 11034 11034 11033 11032 11032 11031 11031 11030 11030 11030 11030 11030 11030 11029 11029
11017 11017 11017 11017 11017 11018 11018 11019 11020 11021 11022 11023 11024 11026 11026 11027 11027 11028 11029 11030 11030 11031 11031 11031 11031 11032 11032 11032 11032 11032 11031 11030 11030 11029 11029 11029 11029 11029 11029 11029 11028 11028
11015 11016 11016 11015 11016 11017 11017 11018 11019 11019 11020 11021 11023 11024 11025 11025 11026 11026 11027 11028 11028 11029 11029 11029 11029 11030 11030 11031 11031 11030 11030 11029 11028 11028 11027 11027 11027 11027 11027 11027 11027 11027
11013 11014 11014 11014 11015 11015 11016 11016 11017 11018 11019 11020 11021 11022 11023 11024 11024 11025 11026 11026 11027 11027 11027 11027 11027 11027 11028 11029 11029 11029 11028 11027 11027 11026 11026 11025 11025 11025 11025 11025 11025 11025
11010 11012 11013 11013 11013 11014 11014 11015 11015 11016 11017 11017 11019 11020 11021 11022 11022 11023 11024 11025 11024 11024 11025 11025 11025 11025 11025 11026 11026 11026 11026 11025 11025 11025 11024 11024 11023 11023 11023 11023 11023 11023
11007 11010 11011 11011 11011 11011 11012 11012 11013 11014 11015 11016 11016 11017 11019 11020 11020 11021 11022 11022 11022 11022 11022 11022 11022 11023 11023 11024 11024 11024 11023 11023 11022 11022 11022 11022 11022 11021 11021 11021 11021 11022
11005 11007 11008 11009 11009 11009 11009 11009 11010 11012 11013 11013 11014 11015 11016 11018 11018 11019 11019 11020 11020 11020 11020 11020 11020 11020 11021 11022 11022 11021 11021 11020 11020 11020 11020 11020 11020 11019 11019 11019 11019 11019
11002 11004 11006 11007 11007 11006 11006 11007 11008 11009 11010 11010 11011 11012 11013 11015 11016 11017 11017 11017 11018 11018 11017 11017 11018 11018 11019 11019 11019 11019 11018 11018 11017 11017 11017 11017 11017 11017 11017 11017 11017 11017
10999 11001 11003 11005 11004 11004 11004 11004 11004 11005 11006 11007 11008 11009 11010 11012 11014 11014 11015 11015 11016 11016 11015 11015 11015 11016 11017 11017 11017 11016 11016 11015 11015 11014 11014 11014 11015 11015 11015 11015 11015 11015
10996 10998 11000 11002 11002 11002 11002 11002 11002 11002 11003 11004 11006 11007 11008 11008 11010 11011 11012 11013 11013 11013 11013 11012 11013 11014 11014 11014 11014 11014 11013 11013 11012 11012 11011 11012 11012 11013 11013 11013 11013 11012
10991 10993 10996 10998 10999 10999 10999 10999 10999 11000 11000 11001 11003 11005 11005 11005 11006 11007 11009 11010 11010 11010 11010 11010 11010 11011 11011 11012 11012 11011 11011 11010 11009 11009 11009 11008 11009 11010 11011 11011 11010 11010
10985 10988 10991 10994 10995 10996 10996 10996 10997 10998 10998 10999 11000 11002 11003 11003 11003 11004 11005 11006 11007 11007 11007 11007 11007 11007 11008 11009 11009 11009 11008 11007 11006 11006 11005 11005 11006 11008 11008 11008 11008 11007
10978 10983 10986 10989 10991 10992 10993 10993 10994 10996 10997 10997 10997 10999 11000 11001 11001 11001 11001 11002 11003 11004 11004 11003 11003 11004 11005 11005 11006 11006 11005 11004 11003 11003 11002 11002 11003 11005 11006 11006 11005 11005
10972 10978 10982 10985 10987 10988 10989 10990 10992 10993 10994 10995 10995 10996 10997 10999 10999 10999 10999 10999 11000 11001 11000 11000 10999 11000 11000 11001 11002 11002 11002 11001 10999 10999 10998 10998 11000 11002 11003 11003 11002 11001
10968 10972 10976 10980 10982 10984 10986 10988 10989 10990 10991 10992 10993 10993 10994 10996 10997 10997 10996 10996 10997 10997 10997 10997 10996 10996 10996 10997 10998 10999 10998 10997 10996 10995 10995 10995 10996 10998 11000 10999 10998 10997
10965 10967 10971 10975 10978 10980 10983 10985 10987 10987 10989 10990 10990 10991 10992 10993 10994 10995 10994 10994 10994 10993 10993 10993 10993 10992 10992 10992 10994 10995 10994 10993 10992 10991 10991 10991 10993 10995 10996 10995 10994 10994
10963 10965 10968 10972 10975 10977 10980 10982 10984 10985 10986 10987 10988 10988 10989 10990 10991 10992 10992 10991 10991 10990 10990 10990 10989 10989 10989 10989 10989 10990 10991 10990 10989 10988 10987 10987 10989 10991 10991 10991 10990 10990
10962 10964 10966 10970 10972 10975 10977 10979 10981 10982 10983 10984 10985 10986 10987 10987 10988 10988 10988 10988 10988 10988 10987 10986 10986 10985 10985 10985 10986 10986 10987 10987 10986 10985 10984 10984 10985 10986 10986 10986 10985 10985